Current Version              Previous Version:    01  02  03  04  05  06  07  08  09  10  11  12  13  14  15  16  17  18  19  20  21  22  23  24  25  26  27  28  29  30  
   31  32  33  34  35  36  37  38  39  40  41  42  43  44  45  46  47  48  49  50  51  52  53  54  55  56  57  58  59  60  

[Printable]
739
ASUS44 KFWD 301403
RWRTX
NORTH TEXAS HOURLY WEATHER ROUNDUP
NATIONAL WEATHER SERVICE FORT WORTH TX
900 AM CDT SAT AUG 30 2014

NOTE: "FAIR" INDICATES FEW OR NO CLOUDS BELOW 12,000 FEET WITH NO
SIGNIFICANT WEATHER AND/OR OBSTRUCTIONS TO VISIBILITY.

TXZ118-119-301500-
DALLAS/FORT WORTH METROPLEX

CITY           SKY/WX    TMP DP  RH WIND       PRES   REMARKS
DFW AIRPORT    MOSUNNY   79  72  79 SE6       29.96R
DALLAS LOVE    CLOUDY    77  72  84 SE8       29.97R
FTW MEACHAM    SUNNY     79  72  79 S5        29.95S
DAL-EXECUTIVE  CLOUDY    77  71  82 SE6       29.97R
FTW-ALLIANCE   MOSUNNY   78  72  81 SW5       29.95S
FTW-NAS-JRB    MOSUNNY   81  70  69 S3        29.99S
FTW-SPINKS     MOSUNNY   77  72  83 SE5       29.98R
ARLINGTON      PTSUNNY   77  71  82 SE7       29.97R
ADDISON        PTSUNNY   77  72  83 E8        29.97R
MESQUITE       PTSUNNY   72  72 100 SE5       29.97R
LANCASTER      CLOUDY    74  71  90 S3        29.98S
$$

TXZ091>094-102>105-117-120-121-131>134-301500-
NORTH CENTRAL TEXAS

CITY           SKY/WX    TMP DP  RH WIND       PRES   REMARKS
SHRMAN/DENISON MOSUNNY   78  71  80 S3        29.99R
GAINESVILLE    SUNNY     76  71  84 SE6       29.99S
BOWIE          SUNNY     76  72  89 S5        29.98S
BRIDGEPORT     SUNNY     76  71  83 CALM      29.99R
DECATUR        MOSUNNY   77  72  84 CALM      29.98S
DENTON         SUNNY     78  71  79 SW7       29.96S
MCKINNEY       CLOUDY    75  72  90 SE8       29.97S
GREENVILLE     MOSUNNY   77  70  78 S6        29.98S
ROCKWALL       PTSUNNY   76  73  90 S5        29.96F
TERRELL        PTSUNNY   76  74  93 SE5       29.97F
WAXAHACHIE     CLOUDY    74  71  88 SE3       29.99R
CLEBURNE       MOSUNNY   77  75  94 S7        29.98S
GRANBURY       SUNNY     79  72  78 CALM      29.97S
$$

TXZ083>090-098>101-113>116-127>130-139>142-154-155-301500-
WESTERN NORTH TEXAS

CITY           SKY/WX    TMP DP  RH WIND       PRES   REMARKS
WICHITA FALLS  SUNNY     75  70  84 CALM      29.96F
WF-KICKAPOO    SUNNY     76  70  80 CALM      29.98S
VERNON         SUNNY     74  71  88 CALM      29.99S
ABILENE        SUNNY     77  70  79 SW9       30.01R
ABILENE-DYESS  SUNNY     76  70  80 W2        30.00R
BRECKENRIDGE   SUNNY     78  70  75 SW3       29.98R HAZE
GRAHAM         SUNNY     77  70  78 CALM      29.97R
MINERAL WELLS  MOSUNNY   76  71  85 SE3       29.96R
STEPHENVILLE   SUNNY     75  71  86 SW6       30.00S
COMANCHE         N/A     79  71  78 SW7       29.99R
BROWNWOOD      PTSUNNY   75  72  88 S3        30.00R
COLEMAN        MOSUNNY   74  69  84 CALM      30.01R
BRADY          MOSUNNY   73  72  94 SE3       30.00R
$$

TXZ143>147-156>162-174-175-301500-
CENTRAL TEXAS

CITY           SKY/WX    TMP DP  RH WIND       PRES   REMARKS
WACO           CLOUDY    75  72  90 CALM      29.97R
WACO-TSTC      PTSUNNY   77  72  83 S5        29.97R
WACO-MCGREGOR  CLOUDY    75  70  83 SE3       29.99R
HILLSBORO      MOSUNNY   76  72  88 E3        29.97S
CORSICANA      CLOUDY    76  71  85 S5        29.98S
MEXIA          CLOUDY    74  72  94 CALM      29.96S
HEARNE           N/A     75  73  91 CALM      29.96S
CAMERON        MOSUNNY   76  73  88 E3        29.96S
TEMPLE         CLOUDY    75  68  78 CALM      29.96S
KILLEEN        MOSUNNY   79  72  78 CALM      29.97R
KILLEEN-SKYLRK CLOUDY    77  68  73 CALM      29.97R
FORT HOOD      CLOUDY    80  71  74 SW5       29.97R
LAMPASAS       SUNNY     78  73  83 CALM      29.97R
$$

TXZ095>097-106>112-122>126-135>138-148>153-164>167-301500-
EAST TEXAS

CITY           SKY/WX    TMP DP  RH WIND       PRES   REMARKS
PARIS          SUNNY     75  66  73 S7        29.99S
SULPHUR SPRNGS MOSUNNY   78  71  81 S5        30.00S
MOUNT PLEASANT SUNNY     74  72  92 CALM      29.99F
GILMER         CLOUDY    75  73  94 CALM      30.00S
MINEOLA        SUNNY     75  73  94 CALM      29.99R
TYLER          CLOUDY    76  71  85 SE3       29.97S
LONGVIEW       PTSUNNY   77  71  82 E3        29.97R
MARSHALL       PTSUNNY   78  74  85 CALM      29.99S
ATHENS         CLOUDY    73  72  94 CALM      29.96S
PALESTINE      MOSUNNY   76  73  91 CALM      29.98R
JACKSONVILLE   CLOUDY    74  72  93 NE5       30.00R
HENDERSON      PTSUNNY   78  71  80 E5        29.98R
NACOGDOCHES    CLOUDY    75  72  88 E3        29.97R
LUFKIN         CLOUDY    77  72  84 E3        29.96R
$$

SUPPLEMENTAL OBSERVATIONS (CENTRAL)

CITY           SKY/WX    TMP DP  RH WIND       PRES   REMARKS
$$

SUPPLEMENTAL OBSERVATIONS (WEST)

CITY           SKY/WX    TMP DP  RH WIND       PRES   REMARKS
$$

SUPPLEMENTAL OBSERVATIONS (EAST)

CITY           SKY/WX    TMP DP  RH WIND       PRES   REMARKS
$$

SUPPLEMENTAL OBSERVATIONS ARE A COLLECTION OF AUTOMATED INSTRUMENTS
THAT ARE MAINTAINED BY A VARIETY OF FEDERAL AND STATE AGENCIES.
CERTAIN ELEMENTS...SUCH AS HUMIDITY VALUES AND SUSTAINED WIND
SPEEDS...MAY BE APPROXIMATED.